Location: Arcones
(41.1182°N, 3.7238°W)
Time: 01:54:47
(UTC+00:00)

Cosmos 967 Rocket - Pass Details

Date: 11 December 2025
Orbit: 941 x 995 km, 65.8° (Epoch: 14 January)

Event Time Altitude Azimuth Distance (km) Brightness Sun altitude
Rises 18:53:03 0° 205° (SSW) 3,626 8.0 -23.1°
Reaches altitude 10° 18:55:35 10° 204° (SSW) 2,691 7.2 -23.5°
Maximum altitude 19:01:52 78° 119° (ESE) 997 4.3 -24.7°
Enters shadow 19:03:37 51° 44° (NE) 1,220 4.6 -25.0°
